Weather in Nizhniy Torey

Russia / Republic of Buryatia     50°31′52″N   104°49′29″E
temp.,
°C
wind,
m/s
gust,
m/s
humid.,
%
clouds,
%
prec.,
mm/h
press.,
hPa
HPBL,
m
15 may, sat
sat1523:00+4wsw11390 0.0 101812
02:00+2wsw11450 0.0 101911
05:000wsw21460 0.0 101910
08:00+6w123233 0.0 1017254
11:00+13wnw02255 0.0 1015718
14:00+17ene351933 0.0 10132875
17:00+16ene342449 0.0 10122027
20:00+12ne24457 0.0 101477
16 may, sun
sun1623:00+7wsw01615 0.0 101711
02:00+5w11677 0.0 101810
05:00+4w117131 0.0 101810
08:00+9w125322 0.0 1016289
11:00+16w56305 0.0 10121187
14:00+21nw352167 0.0 10092969
17:00+20nne432988 0.0 10081506
20:00+15ese364441 0.0 1008139
17 may, mon
mon1723:00+10s116221 0.0 100913
02:00+8sw226895 0.0 100720
05:00+7wsw116699 0.0 100611
08:00+12nnw124998 0.0 1005286
11:00+16ne4442100 0.0 10041180
14:00+17ne764770 0.0 10031181
17:00+10nne4682100 3.6 1006490
20:00+7nw1485100 13.8 1010625
18 may, tue
tue1823:00+6nnw2286100 0.1 101351
02:00+5nw118475 0.1 101411
05:00+3nw1188100 0.0 101410
08:00+6e1278100 0.1 1013422
11:00+7ne2179100 0.0 1011574
14:00+6ene228699 0.1 1010497
17:00+9e217796 0.1 1007637
20:00+7ne128512 0.1 100697
19 may, wed
wed1923:00+5nnw01949 0.0 100510
02:00+4wnw1194100 0.0 100111
05:00+5wnw1194100 0.0 100011
08:00+8n357574 0.0 1003521
11:00+11n3359100 0.0 1003883
14:00+14ene324848 0.0 10001396
17:00+14se455698 0.0 9981216
20:00+10s118442 1.1 99833